Regional Weather Roundup
Issued by NWS Wilmington, NC

Home | Current Version | Previous Version | Text Only | Print | Product List | Glossary On
Versions: 1 2 3 4 5 6 7 8 9 10 11 12 13 14 15 16 17 18 19 20 21 22 23 24 25 26 27
000
ASUS42 KILM 091512
RWRILM
RWRILM
REGIONAL HOURLY WEATHER ROUNDUP
NATIONAL WEATHER SERVICE WILMINGTON NC
1000 AM EST FRI DEC 09 2016

NOTE: "FAIR" INDICATES FEW OR NO CLOUDS BELOW 12,000 FEET WITH NO
SIGNIFICANT WEATHER AND/OR OBSTRUCTIONS TO VISIBILITY.

...............WFO WILMINGTON COUNTY WARNING AREA...............

......COASTAL NC AND SC COUNTIES......

CITY           SKY/WX    TMP DP  RH WIND       PRES   REMARKS
WILMINGTON     SUNNY     39  19  44 N16       30.39R WCI  30
N MYRTLE BEACH SUNNY     40  20  44 N13G20    30.41R WCI  32
MYRTLE BEACH   SUNNY     41  19  42 N16       30.44R

......INLAND NC AND SC COUNTIES.......

CITY           SKY/WX    TMP DP  RH WIND       PRES   REMARKS
LUMBERTON      SUNNY     40  20  44 N6        30.41R
ELIZABETHTOWN  SUNNY     38  20  47 NW10      30.40S WCI  31
WHITEVILLE     SUNNY     39  19  46 N7        30.41R WCI  34
FLORENCE       SUNNY     40  19  43 N12       30.44R WCI  33
DARLINGTON     SUNNY     38  19  46 N10       30.45R WCI  31
KINGSTREE      FAIR      37  18  44 N9        30.45R WCI  31
HARTSVILLE     FAIR      36  18  48 N7        30.44R WCI  30
BENNETTSVILLE  FAIR      39  25  56 NW7       30.44R WCI  34
CONWAY         FAIR      37  21  52 N6        30.43R HAZE    WCI  33
GEORGETOWN     NOT AVBL
MARION         FAIR      37  21  52 N10       30.44R WCI  30

....................REST OF NORTH CAROLINA......................

.........EASTERN NC.........

CITY           SKY/WX    TMP DP  RH WIND       PRES   REMARKS
CAPE HATTERAS  SUNNY     41  23  48 VRB7G17   30.33R
JACKSONVILLE   SUNNY     39  20  46 N9        30.39R WCI  33
MOREHEAD CITY  SUNNY     41  20  43 N13       30.36R
KENANSVILLE    SUNNY     37  18  44 N15       30.40R WCI  28
NEW BERN       SUNNY     39  19  44 NW13      30.39R WCI  31
ELIZABETH CITY SUNNY     37  20  50 NW17      30.35R WCI  27

.........CENTRAL NC.........

CITY           SKY/WX    TMP DP  RH WIND       PRES   REMARKS
RALEIGH DURHAM SUNNY     35  15  44 N9G17     30.41R WCI  28
ROCKY MOUNT    SUNNY     37  18  46 N13       30.40R WCI  29
ROANOKE RAPIDS NOT AVBL
FAYETTEVILLE   SUNNY     39  18  42 N10       30.40R WCI  32
HOFFMAN        SUNNY     37  17  43 N14       30.41R WCI  29

.........WESTERN NC.........

CITY           SKY/WX    TMP DP  RH WIND       PRES   REMARKS
CHARLOTTE      SUNNY     36  15  42 N10       30.43R WCI  28
GREENSBORO     MOSUNNY   35  18  49 NE7       30.38R WCI  29
HICKORY        NOT AVBL
BOONE          NOT AVBL
ASHEVILLE      NOT AVBL

.....................REST OF SOUTH CAROLINA.....................

.........EASTERN SC.........

CITY           SKY/WX    TMP DP  RH WIND       PRES   REMARKS
CHARLESTON     MOSUNNY   45  18  34 N13       30.43R
BEAUFORT MCAS  SUNNY     46  23  40 NE13      30.44R
HILTON HEAD    NOT AVBL

.........CENTRAL SC.........

CITY           SKY/WX    TMP DP  RH WIND       PRES   REMARKS
COLUMBIA       MOSUNNY   41  17  38 N6        30.45R
ORANGEBURG     SUNNY     41  19  41 NE10      30.45R
SUMTER SHAW    SUNNY     39  17  41 N8        30.43R WCI  33

.........WESTERN SC.........

CITY           SKY/WX    TMP DP  RH WIND       PRES   REMARKS
GREENVILLE     NOT AVBL
ROCK HILL      SUNNY     37  17  44 N9        30.43R WCI  30
ANDERSON       SUNNY     37  18  46 CALM      30.44R
CLEMSON        NOT AVBL
GREENWOOD      SUNNY     36  17  46 NE5       30.45R WCI  32


...................COASTAL AND OFFSHORE REPORTS..................

................LOCAL PIERS AND NC RESERVE................


STATION/POSITION TIME  SKY/WX   TEMP    WIND        PRES    VSBY
                                AIR SEA DIR/SP/G
                 (UTC)          (F)     (DEG/KT/KT) (MB)    (MI)
JOHNY MRCER PIER 1448            39 60  340/ 12/ 19 1027.8R
NC RESRV MASNBRO 1345            39      20/  2     1027.0
OCEAN CREST PIER NOT AVBL
SPRINGMAID  PIER NOT AVBL


................COASTAL AND OFFSHORE BUOYS................


STATION/POSITION TIME  SKY/WX   TEMP    WIND        PRES    VSBY
                                AIR SEA DIR/SP/G
                 (UTC)          (F)     (DEG/KT/KT) (MB)    (MI)
DIMNDSHOAL 41025 1450            43 75  350/ 19/ 25 1026.2R
WVE H/P(F/S)=  5/ 8 SWL H/P/D(F/S/D)=  3/ 50/ 8

CAPE LOOKOUT     1400            38     330/ 17/ 21 1027.1R
ONSLOW BAY 41036 NOT AVBL
ONSLOW BAY 41064 1408            43 69   10/ 17/ 29 1027.6R
ONSLOW BAY 41159 NOT AVBL
5SE WRITBC 41038 NOT AVBL
MASNBO INL 41110 1459               61                N/A
WVE H/P(F/S)=  3/ 4

WILM HARBR 41108 1456               60                N/A
WVE H/P(F/S)=  3/ 3

27SE WRITB 41037 1408            43 67   20/ 17/ 25 1027.5R
FRYING PAN 41013 1450            45 72  350/ 17/ 23 1028.2R
WVE H/P(F/S)=  6/ 6

SUNST NRSH 41024 1408            39 59   10/ 16/ 19 1028.7R
CAPRS NRSH 41029 1408            43 60   30/ 17/ 23 1029.2R
EDISTO     41004 1450            50 73  360/ 17/ 23 1028.2R
WVE H/P(F/S)=  6/ 7 SWL H/P/D(F/S/D)=  2/260/14



..........OFFSHORE BUOYS BEYOND 100 NM OFFSHORE...........
.....IN A TRIANGLE---HAT TO BERMUDA TO BAHAMAS TO HAT.....


STATION/POSITION TIME  SKY/WX   TEMP    WIND        PRES    VSBY
                                AIR SEA DIR/SP/G
                 (UTC)          (F)     (DEG/KT/KT) (MB)    (MI)
150E HAT   41001 NOT AVBL
W BERMUDA  41048 1450            68 73  320/ 17/ 21 1019.2R
WVE H/P(F/S)=  6/ 7 SWL H/P/D(F/S/D)=  2/ 90/11

ATLANTIC S 41049 1450            75 76  270/  6/  8 1020.7F
WVE H/P(F/S)=  5/ 9 SWL H/P/D(F/S/D)=  5/310/ 9

E BAHAMAS  41046 1450            77 79  170/  4/  8 1020.8F
WVE H/P(F/S)=  4/ 9 SWL H/P/D(F/S/D)=  3/ 9

NE BAHAMAS 41047 1450            76 78  350/ 10/ 14 1020.0R
WVE H/P(F/S)=  3/ 8 SWL H/P/D(F/S/D)=  3/ 20/ 8

120E CANVRL41010 NOT AVBL

END




USA.gov is the U.S. government's official web portal to all federal, state and local government web resources and services.